Torna al catalogo

ARIANE 3 DEB

AttivoHEO
NORAD 18571·DEBRIS·🇫🇷 France

Lanciato Sep 16, 1987 da Guiana Space Centre

Loading…

Prossimi Passaggi (prossime 24 ore)

TLE

AggiornatoSource: Space-Track

Epoca: Sep 14, 2026, 08:32 UTC

1 18571U 87078F   26257.35600352  .00000626  00000-0  88162-3 0  9990
2 18571   6.7734  53.8888 5569182 182.5283 172.7714  4.53874655433451

Traccia ARIANE 3 DEB in tempo reale con AllMySat

Download on the App Store